RH
71 76 76 70 69 64 64 65 62 63 60 59 59 61 62 65 65 63 67 66 63 59
70 75 81 88 89 93 71 62 60 63 64 62 60 61 60 62 61 61 62 63 63 62
76 77 84 95 97 96 93 83 76 68 67 62 60 60 60 62 58 59 62 62 62 62
83 84 88 94 91 89 91 92 83 73 66 61 60 64 61 62 61 63 62 63 66 66
83 88 90 89 89 92 87 78 74 66 62 61 62 60 62 63 66 65 68 66 71 73
86 92 90 89 89 78 76 72 69 63 64 64 66 67 64 63 65 68 68 67 67 68
85 88 88 85 82 77 73 78 82 71 68 69 67 68 68 70 71 70 72 75 77 74
82 81 84 88 87 86 85 82 82 76 75 74 76 79 79 82 89 88 88 93 97 96
83 84 87 89 91 92 94 93 87 90 92 97 96 99 100 98 99 99 99 99 96 96
95 95 94 91 94 98 98 98 98 99 98 98 97 96 97 98 96 97 98 98 99 96
97 98 98 95 96 97 97 98 98 98 97 97 96 96 95 95 93 91 90 94 95 92
98 98 98 99 97 95 96 96 96 96 95 97 98 94 94 91 90 91 87 83 83 81
98 98 98 96 95 95 92 93 94 97 94 92 93 89 86 80 79 84 82 83 84 82
96 97 94 96 94 94 94 95 95 95 96 93 90 86 86 85 86 90 86 81 82 80
Wind_Speed
17 10 10 13 9 10 10 10 13 12 12 13 11 10 10 7 8 9 9 11 9 7
16 15 11 10 7 3 7 8 12 13 13 13 13 12 12 9 10 10 10 10 10 9
16 16 13 10 9 9 8 7 7 11 12 14 13 13 13 11 12 12 10 8 11 11
14 14 13 12 12 13 11 10 12 12 12 14 14 12 13 13 13 13 12 12 12 13
15 13 14 15 15 14 13 13 15 16 15 15 15 15 15 14 12 14 14 14 13 14
16 15 16 16 15 15 15 15 13 13 13 14 14 12 13 14 14 14 14 14 14 15
18 17 15 15 15 16 16 13 10 13 14 13 13 12 12 12 13 13 12 11 11 12
17 16 14 13 13 13 13 13 12 14 14 12 10 8 11 10 8 9 10 7 4 3
13 13 12 12 11 11 11 10 10 9 8 5 3 6 8 7 5 3 3 3 5 7
12 11 10 10 9 8 9 7 7 8 8 7 6 8 5 5 4 4 5 6 9 4
11 11 10 10 9 7 6 8 7 7 7 8 6 10 9 7 6 7 7 7 6 7
9 10 9 9 8 6 7 6 5 5 7 8 7 10 9 8 7 8 8 7 6 7
6 7 8 8 10 6 7 8 7 7 6 11 8 10 9 8 7 8 6 7 6 7
7 8 9 8 7 8 9 10 9 9 8 9 7 10 12 11 5 6 6 4 3 3
Wind_Direction
197 193 194 192 185 191 193 194 196 200 204 203 201 201 203 204 211 211 218 221 221 224
201 194 192 170 151 163 210 202 201 196 204 207 205 205 205 210 211 208 215 220 223 225
201 200 188 168 167 188 204 202 194 207 205 207 209 209 209 215 220 217 217 219 222 227
201 195 189 186 183 202 195 195 214 202 213 213 213 205 209 216 220 224 227 224 229 234
201 186 186 195 195 192 201 201 207 209 207 213 215 215 210 217 217 225 227 230 227 238
197 186 192 197 204 200 200 207 210 212 210 214 213 209 215 220 222 226 230 232 230 238
198 191 193 196 200 205 204 206 201 213 218 218 217 217 219 221 226 231 237 240 243 246
199 196 195 193 196 196 196 201 201 207 214 216 216 214 214 217 218 229 232 227 188 160
194 190 194 195 190 188 190 194 191 199 200 171 133 163 188 186 194 203 185 161 131 124
176 176 173 173 163 167 168 149 154 152 151 148 130 136 135 129 142 143 136 138 143 107
179 181 159 165 167 146 151 154 147 137 130 124 124 128 120 118 102 100 93 93 86 106
162 153 151 144 131 114 116 110 110 120 126 126 122 127 129 117 108 99 91 83 88 99
113 128 129 132 124 112 112 111 108 103 101 115 111 116 108 101 110 101 82 78 76 88
87 100 105 106 108 119 111 101 96 96 98 103 113 108 99 100 97 102 112 98 95 103